Regional Weather Roundup
Issued by NWS

Home | Current Version | Previous Version | Text Only | Print | Product List | Glossary Off
Versions: 1 2 3 4 5 6 7 8 9 10 11 12 13 14 15 16 17 18 19 20 21 22 23 24 25 26 27 28 29 30 31 32 33 34 35 36 37 38 39 40 41 42 43 44 45 46 47 48 49 50

000
ASUS43 KMKX 302111
RWRWI

WISCONSIN REGIONAL WEATHER ROUNDUP
NATIONAL WEATHER SERVICE MILWAUKEE/SULLIVAN WI
400 PM CDT SAT APR 30 2016

NOTE: "FAIR" INDICATES FEW OR NO CLOUDS BELOW 12,000 FEET WITH NO
SIGNIFICANT WEATHER AND/OR OBSTRUCTIONS TO VISIBILITY.

WIZ001-002-006>008-014>016-023>028-302200-
NORTHWEST WISCONSIN

CITY           SKY/WX    TMP DP  RH WIND       PRES   REMARKS
SUPERIOR ARPT  MOSUNNY   45  34  65 NE12G22   30.22S
ASHLAND        SUNNY     48  32  53 NE21G35   30.23F
HAYWARD        CLOUDY    51  29  42 NE22G31   30.14F
SIREN          CLOUDY    54  31  41 NE15G25   30.11S
CUMBERLAND     CLOUDY    54  32  43 NE17      30.07S
RICE LAKE      CLOUDY    58  31  35 NE13G18   30.07F
CHETEK         CLOUDY    58  34  40 E13G18    30.05F
LADYSMITH      CLOUDY    59  33  37 E14       30.08F
EAU CLAIRE     CLOUDY    58  32  37 E14G24    30.02F
MENOMONIE      CLOUDY    58  33  38 NE13      30.03F
NEW RICHMOND   CLOUDY    57  32  37 E15G21    30.04F
OSCEOLA        CLOUDY    59  33  36 NE13G18   30.08S
$$

WIZ003>005-009-010-017-018-302200-
NORTH CENTRAL WISCONSIN

CITY           SKY/WX    TMP DP  RH WIND       PRES   REMARKS
MANITOWISH WTR CLOUDY    52  34  50 N15G22    30.12F
ARBOR VITAE    CLOUDY    56  33  42 NE7G16    30.10F
WOODRUFF       CLOUDY    56  33  42 NE7G16    30.10F
RHINELANDER    CLOUDY    55  31  39 E12G21    30.09F
EAGLE RIVER    PTSUNNY   55  29  37 E10G16    30.11F
LAND O LAKES   CLOUDY    54  32  43 NE10      30.14F
PHILLIPS       CLOUDY    55  33  42 NE13G20   30.08F
TOMAHAWK       CLOUDY    56  31  39 NE7G16    30.07F
MEDFORD        PTSUNNY   57  33  40 E14G22    30.03F
MERRILL        CLOUDY    58  33  38 E14G25    30.06F
$$

WIZ029-030-035-036-043>047-302200-
CENTRAL WISCONSIN

CITY           SKY/WX    TMP DP  RH WIND       PRES   REMARKS
WAUSAU         CLOUDY    57  31  37 NE15G22   30.03F
MOSINEE        SUNNY     54  30  40 NE16G25   30.05F
MARSHFIELD     CLOUDY    54  31  41 E15       30.03F
STEVENS POINT  CLOUDY    51  29  44 E15G23    30.05F
WAUPACA        CLOUDY    54  33  45 NE14G21   30.06S
WAUTOMA        CLOUDY    52  37  56 NE21      30.03F
WISC RAPIDS    CLOUDY    53  30  41 E18G28    30.05F
CAMP DOUGLAS   CLOUDY    52  41  67 NE12      30.00F
$$

WIZ011>013-019>022-031-037>040-048>050-302200-
NORTHEAST WISCONSIN

CITY           SKY/WX    TMP DP  RH WIND       PRES   REMARKS
ANTIGO         CLOUDY    54  34  47 E13       30.06F
SHAWANO        CLOUDY    55  30  38 E15G22    30.08F
OCONTO         CLOUDY    51  31  46 E7        30.09F
STURGEON BAY   CLOUDY    48  34  57 NE10      30.11F
GREEN BAY      CLOUDY    51  37  58 NE14      30.08F
MANITOWOC      CLOUDY    47  37  68 MISG      30.08F
APPLETON       CLOUDY    52  32  46 E13       30.04F
CLINTONVILLE   CLOUDY    54  27  35 E16G23    30.06F
OSHKOSH        CLOUDY    51  35  54 E12       30.03F
$$

WIZ032>034-041-042-053>061-302200-
SOUTHWEST WISCONSIN

CITY           SKY/WX    TMP DP  RH WIND       PRES   REMARKS
LA CROSSE      LGT RAIN  51  38  60 E14G23    30.00S
SPARTA         CLOUDY    52  38  58 NE9G18    30.01S
VIROQUA        CLOUDY    45  42  92 E13       29.98S
BOSCOBEL       LGT RAIN  48  44  86 NE8G23    29.98R FOG
PRAIRIE DU CHI LGT SNOW  46  42  85 E8G24     29.97R
PLATTEVILLE    CLOUDY    45  44  95 NE21G29   29.92F
$$

WIZ056-057-062-063-064-067-068-302200-
SOUTH CENTRAL WISCONSIN

CITY           SKY/WX    TMP DP  RH WIND       PRES   REMARKS
REEDSBURG      LGT RAIN  45  43  93 NE7       29.99S
BARABOO/DELLS  LGT RAIN  45  40  85 E10       29.98F
LONE ROCK      LGT RAIN  47  41  80 E21G29    30.00R
MINERAL POINT  LGT RAIN  45  45 100 NE22      29.94S
MADISON        LGT RAIN  45  38  76 E16G29    29.98F
MIDDLETON      CLOUDY    47  40  78 E14G21    29.99R
WATERTOWN      LGT RAIN  44  44  97 E13       29.98F
MONROE         RAIN      43  43 100 NE15G24   29.94R
JANESVILLE     LGT RAIN  46  45  93 E20G25    29.95S FOG
$$

WIZ051-052-058>065-066-070>072-302200-
SOUTHEAST WISCONSIN

CITY           SKY/WX    TMP DP  RH WIND       PRES   REMARKS
MILWAUKEE      LGT RAIN  43  39  86 NE13      30.01F
WAUKESHA       LGT RAIN  43  37  81 NE12G21   30.01F
MILWAUKEE/TIMM LGT RAIN  43  37  81 NE10      30.02F
RACINE         LGT RAIN  44  39  82 NE16G25   30.01F
BURLINGTON     RAIN      42  40  90 E14       29.98F
KENOSHA        RAIN      44  40  85 NE15G24   29.99F FOG
FOND DU LAC    LGT RAIN  50  36  58 NE9       30.02F
SHEBOYGAN      CLOUDY    47  37  68 NE13      30.05F
WEST BEND      LGT RAIN  43  37  81 NE9       30.02F
JUNEAU         LGT RAIN  45  39  82 NE12      30.01F
$$

LSZ147-162-302200-
LAKE SUPERIOR

STATION/POSITION TIME  TEMP    WIND        PRES    WAVE
                       AIR SEA DIR/SP/G            HT/PER
                 (UTC) (F)     (DEG/KT/KT) (MB)    (FT/S)
W MID LAKE BUOY  2050   39 37   70/  8/ 10 1025.5F   2/ 4
DEVILS ISLAND    2100   40      90/ 23/ 25 1024.9F
SAXON HARBOR     2029   40      50/ 21/ 25 1022.7F
$$

LMZ867-665-643>646-302200-
LAKE MICHIGAN

STATION/POSITION TIME  TEMP    WIND        PRES    WAVE
                       AIR SEA DIR/SP/G            HT/PER
                 (UTC) (F)     (DEG/KT/KT) (MB)    (FT/S)
CHAMBERS ISLAND  2000   48      60/  8/ 10 1020.7
N MID LAKE BUOY  2050   43 39   30/ 10/ 10 1019.9F   1
NORTHPORT PIER   2000   44     110/  3/  7 1020.7S
ALGOMA LAKESHORE 1915           20/ 13/ 16   N/A
KEWAUNEE LAKESHO 2000   44      20/ 11/ 17 1018.7F
SHEBOYGAN LAKESH 2100   42      20/ 20/ 22 1018.2F
PORT WASHINGTON  2000   45      40/ 13/ 17 1018.6F
S MID LAKE BUOY  2050   43 40   70/ 14/ 16 1015.5F   1/ 3
KENOSHA   LAKESH 2100   43      50/ 17/ 19 1015.6S
$$

TC  - TEMPERATURE IN CELSIUS
VSB - VISIBILITY IN STATUTE MILES
WCI - WIND CHILL INDEX
HX  - HEAT INDEX




USA.gov is the U.S. government's official web portal to all federal, state and local government web resources and services.